[[{"header":{"parameterUnit":"m.s-1","parameterCategory":2,"la1":30.2991,"la2":30.254,"lo1":-89.0895,"lo2":-89.0444,"dy":0.0017,"dx":0.0017,"nx":28,"ny":28,"refTime":"2024-04-12T03:00:00:Z","depth":"0","parameterNumber":2,"parameterNumberName":"U-component_of_CURRENTS"},"data":[0,0,0,0,0,0,0,0,0,0,0,0,0,0,0,0,0,0,0,0,0,0,0,0,0,0,0,0,0,0,0,0,0,0,0,0,0,0,0,0,0,0,0,0,0,0,0,0,0,0,0,0,0,0,0,0,0,0,-0.2022,-0.2024,0,-0.2158,-0.216,-0.2161,-0.2162,-0.216,-0.2159,-0.2158,-0.2148,-0.2149,-0.215,0,0,0,0,0,0,0,0,0,0,0,0,0,-0.1824,-0.1827,-0.2022,-0.2024,-0.2026,-0.2158,-0.216,-0.2161,-0.2162,-0.216,-0.2159,-0.2157,-0.2147,-0.2148,-0.215,0,0,0,0,0,0,0,0,0,0,0,0,0,-0.1926,-0.1828,-0.2022,-0.2045,-0.2049,-0.2158,-0.216,-0.2162,-0.2162,-0.216,-0.2158,-0.2156,-0.2147,-0.2148,-0.215,-0.2203,0,0,-0.2155,-0.2156,0,0,0,0,0,0,0,0,-0.1921,-0.1933,-0.2039,-0.2044,-0.2048,-0.2144,-0.2086,-0.2169,-0.2163,-0.2116,-0.2158,-0.2155,-0.2137,-0.2139,-0.2167,-0.2202,-0.2202,-0.2155,-0.2156,-0.2157,-0.2157,0,0,0,0,0,0,0,-0.1913,-0.1928,-0.2072,-0.2042,-0.2047,-0.207,-0.2081,-0.2103,-0.2131,-0.212,-0.2121,-0.2142,-0.2137,-0.2165,-0.2166,-0.2202,-0.2155,-0.2156,-0.2157,-0.2158,-0.225,-0.2251,0,0,0,0,0,0,-0.1903,-0.1921,-0.2068,-0.2077,-0.1981,-0.2075,-0.2087,-0.2112,-0.2134,-0.2138,-0.2144,-0.2142,-0.2164,-0.2164,-0.2165,-0.2184,-0.2157,-0.2158,-0.2159,-0.2248,-0.225,-0.2252,0,0,0,0,0,0,-0.1899,-0.1915,-0.2063,-0.2004,-0.2025,-0.2081,-0.2109,-0.2116,-0.214,-0.2155,-0.2154,-0.2159,-0.2162,-0.2163,-0.2192,-0.2185,-0.2159,-0.216,-0.2247,-0.2249,-0.2251,-0.225,0,0,0,0,0,0,-0.1892,-0.1913,-0.1916,-0.2004,-0.2028,-0.212,-0.2112,-0.2121,-0.2159,-0.2157,-0.2168,-0.2166,-0.216,-0.219,-0.2193,-0.2187,-0.2162,-0.2245,-0.2248,-0.225,-0.2248,-0.2252,-0.2255,0,0,0,0,0,-0.1885,-0.1893,-0.1916,-0.1933,-0.2035,-0.2122,-0.2136,-0.2166,-0.2161,-0.2177,-0.2192,-0.2165,-0.2209,-0.2193,-0.2197,-0.219,-0.2243,-0.2247,-0.225,-0.2247,-0.2252,-0.2255,0,0,0,0,0,0,-0.1808,-0.1898,-0.1923,-0.1958,-0.2035,-0.2123,-0.2136,-0.2172,-0.2203,-0.2191,-0.2196,-0.2196,-0.2217,-0.2219,-0.2201,-0.2229,-0.2218,-0.2222,-0.2214,-0.2218,-0.2222,-0.2163,-0.2163,0,0,0,0,0,-0.1798,-0.1826,-0.1926,-0.1955,-0.1989,-0.2068,-0.2102,-0.2138,-0.2186,-0.2197,-0.2209,-0.2221,-0.224,-0.2239,-0.2259,-0.2281,-0.2275,-0.2278,-0.2282,-0.2284,-0.2243,-0.2286,-0.2288,-0.2263,-0.2263,-0.2263,0,0,-0.1779,-0.1831,-0.1848,-0.1941,-0.1995,-0.2041,-0.2081,-0.2142,-0.2163,-0.219,-0.2204,-0.224,-0.2254,-0.2275,-0.2283,-0.2269,-0.229,-0.2289,-0.229,-0.2246,-0.2289,-0.2292,-0.2293,-0.2265,-0.2264,-0.2264,0,0,-0.1763,-0.1802,-0.1825,-0.1882,-0.1972,-0.2022,-0.204,-0.2135,-0.2151,-0.2203,-0.2218,-0.2239,-0.2285,-0.2278,-0.2283,-0.2318,-0.2317,-0.2346,-0.2301,-0.2346,-0.2347,-0.2348,-0.234,-0.2341,-0.2336,-0.2336,-0.2336,0,-0.174,-0.1788,-0.1846,-0.1884,-0.1932,-0.2008,-0.2055,-0.2081,-0.2169,-0.2205,-0.2196,-0.2286,-0.2267,-0.23,-0.2284,-0.2315,-0.2344,-0.2281,-0.2347,-0.2348,-0.2349,-0.2341,-0.2341,-0.2337,-0.2337,-0.2337,-0.2337,0,-0.1747,-0.1787,-0.1805,-0.1872,-0.1922,-0.1981,-0.2041,-0.2084,-0.2122,-0.2171,-0.2235,-0.2245,-0.2293,-0.2295,-0.2276,-0.2294,-0.2313,-0.2355,-0.2327,-0.2351,-0.2342,-0.2342,-0.2337,-0.2337,-0.2337,-0.2337,0,0,-0.1721,-0.1799,-0.1807,-0.1851,-0.1933,-0.1991,-0.2014,-0.2101,-0.2148,-0.2191,-0.2256,-0.2241,-0.2275,-0.2278,-0.2293,-0.2287,-0.2278,-0.2305,-0.2307,-0.2277,-0.2363,-0.2308,-0.2303,-0.2366,-0.2367,-0.2367,-0.2351,0,-0.1729,-0.1784,-0.1827,-0.1894,-0.194,-0.2014,-0.2045,-0.2117,-0.2177,-0.2244,-0.2257,-0.2307,-0.2263,-0.2296,-0.2283,-0.2296,-0.2282,-0.2276,-0.2358,-0.2357,-0.2292,-0.2302,-0.2201,-0.2174,-0.2351,-0.2351,-0.2351,0,-0.1742,-0.178,-0.1831,-0.1943,-0.1974,-0.2003,-0.2118,-0.2162,-0.2246,-0.2293,-0.2345,-0.2382,-0.2352,-0.233,-0.2319,-0.2339,-0.2318,-0.2316,-0.2318,-0.2255,-0.2304,-0.2182,-0.2168,-0.2136,-0.2351,-0.2351,-0.2351,0,-0.1713,-0.1807,-0.1847,-0.1877,-0.1981,-0.202,-0.2079,-0.2175,-0.2222,-0.2312,-0.2357,-0.2402,-0.2392,-0.2404,-0.2341,-0.2357,-0.2343,-0.2384,-0.2316,-0.2312,-0.2223,-0.221,-0.216,-0.2371,-0.2371,-0.2371,-0.2371,0,-0.1725,-0.1769,-0.1831,-0.1847,-0.1913,-0.2001,-0.2076,-0.2149,-0.2241,-0.2286,-0.2357,-0.2384,-0.2411,-0.2413,-0.2379,-0.2323,-0.2377,-0.2277,-0.2304,-0.2221,-0.2209,-0.2175,-0.22,-0.2371,-0.2371,-0.2371,-0.2371,0,-0.1689,-0.1737,-0.1777,-0.1858,-0.1888,-0.1922,-0.2028,-0.2086,-0.2179,-0.2235,-0.2252,-0.2347,-0.2351,-0.2373,-0.2377,-0.2341,-0.2279,-0.2294,-0.2159,-0.2168,-0.2073,-0.2103,-0.207,-0.201,-0.2221,-0.2219,-0.2218,0,-0.1675,-0.1676,-0.1728,-0.1742,-0.1769,-0.1835,-0.1879,-0.201,-0.206,-0.2193,-0.2201,-0.226,-0.2275,-0.2272,-0.2248,-0.2219,-0.221,-0.2102,-0.2086,-0.2018,-0.2074,-0.2099,-0.2053,-0.1969,-0.1966,-0.1964,-0.1962,0,-0.1607,-0.1603,-0.1625,-0.1641,-0.1673,-0.1727,-0.1796,-0.1828,-0.1972,-0.2032,-0.2103,-0.2141,-0.2163,-0.211,-0.2089,-0.2057,-0.2046,-0.2047,-0.2033,-0.1892,-0.1862,-0.1834,-0.2005,-0.1939,-0.1941,-0.1943,-0.1944,-0.1945,-0.152,-0.1513,-0.1517,-0.1543,-0.1576,-0.1603,-0.1618,-0.1705,-0.1769,-0.1852,-0.1944,-0.1984,-0.198,-0.1948,-0.1906,-0.1807,-0.1885,-0.1757,-0.1802,-0.1834,-0.1756,-0.184,-0.1782,-0.1784,-0.1785,-0.1786,-0.1787,0,-0.1416,-0.1428,-0.1431,-0.1453,-0.145,-0.1503,-0.1556,-0.1561,-0.1597,-0.169,-0.1747,-0.1787,-0.1724,-0.1722,-0.1655,-0.1587,-0.1546,-0.1553,-0.1559,-0.1527,-0.1634,-0.1599,-0.1432,-0.1433,-0.1433,-0.1433,-0.1433,-0.1433,-0.1362,-0.134,-0.1356,-0.1321,-0.1334,-0.1304,-0.131,-0.1328,-0.1379,-0.1424,-0.1493,-0.1588,-0.1594,-0.1692,-0.1572,-0.1482,-0.1446,-0.141,-0.1443,-0.1519,-0.1541,-0.1562,-0.1532,-0.1354,-0.1354,-0.1254,-0.1254,-0.1254]},{"header":{"parameterUnit":"m.s-1","parameterCategory":2,"la1":30.2991,"la2":30.254,"lo1":-89.0895,"lo2":-89.0444,"dy":0.0017,"dx":0.0017,"nx":28,"ny":28,"refTime":"2024-04-12T03:00:00:Z","depth":"0","parameterNumber":3,"parameterNumberName":"V-component_of_CURRENTS"},"data":[0,0,0,0,0,0,0,0,0,0,0,0,0,0,0,0,0,0,0,0,0,0,0,0,0,0,0,0,0,0,0,0,0,0,0,0,0,0,0,0,0,0,0,0,0,0,0,0,0,0,0,0,0,0,0,0,0,0,-0.0911,-0.0912,0,-0.0943,-0.0943,-0.0943,-0.097,-0.0971,-0.0971,-0.0972,-0.0902,-0.09,-0.0898,0,0,0,0,0,0,0,0,0,0,0,0,0,-0.0951,-0.0949,-0.0911,-0.0912,-0.0913,-0.0943,-0.0943,-0.0943,-0.097,-0.0971,-0.0971,-0.0972,-0.0903,-0.09,-0.0897,0,0,0,0,0,0,0,0,0,0,0,0,0,-0.0949,-0.0948,-0.0911,-0.0933,-0.0935,-0.0943,-0.0943,-0.0943,-0.097,-0.0971,-0.0972,-0.0973,-0.0904,-0.0901,-0.0897,-0.0854,0,0,-0.0886,-0.0884,0,0,0,0,0,0,0,0,-0.0949,-0.0947,-0.0929,-0.0931,-0.0934,-0.0957,-0.0932,-0.091,-0.0969,-0.0952,-0.0972,-0.0973,-0.0913,-0.0909,-0.0908,-0.0851,-0.0848,-0.0885,-0.0883,-0.0882,-0.088,0,0,0,0,0,0,0,-0.0949,-0.0946,-0.092,-0.093,-0.0933,-0.0968,-0.0968,-0.0929,-0.0922,-0.0954,-0.0957,-0.0967,-0.0914,-0.0912,-0.0907,-0.0847,-0.0885,-0.0882,-0.088,-0.0878,-0.0735,-0.0734,0,0,0,0,0,0,-0.0948,-0.0945,-0.0919,-0.0921,-0.0949,-0.0966,-0.0966,-0.0946,-0.0924,-0.0924,-0.0966,-0.0968,-0.0918,-0.0911,-0.0904,-0.0785,-0.0882,-0.0878,-0.0876,-0.0737,-0.0735,-0.0733,0,0,0,0,0,0,-0.0948,-0.0944,-0.0918,-0.094,-0.0939,-0.0964,-0.0942,-0.0946,-0.0944,-0.0936,-0.0933,-0.0961,-0.0918,-0.0909,-0.0866,-0.0785,-0.0876,-0.0873,-0.0739,-0.0736,-0.0734,-0.0588,0,0,0,0,0,0,-0.0948,-0.0943,-0.0924,-0.0938,-0.0938,-0.0893,-0.0941,-0.0946,-0.0951,-0.0954,-0.093,-0.0925,-0.0918,-0.0871,-0.0862,-0.0781,-0.087,-0.0741,-0.0737,-0.0735,-0.0595,-0.0581,-0.0569,0,0,0,0,0,-0.0949,-0.0913,-0.0922,-0.0919,-0.0911,-0.0891,-0.0892,-0.0914,-0.095,-0.0922,-0.0927,-0.0926,-0.0846,-0.0867,-0.0856,-0.0773,-0.0742,-0.0738,-0.0735,-0.0601,-0.0584,-0.057,0,0,0,0,0,0,-0.093,-0.0913,-0.0923,-0.0887,-0.0879,-0.0897,-0.088,-0.0908,-0.0893,-0.0894,-0.0905,-0.0897,-0.0828,-0.0834,-0.0858,-0.073,-0.0793,-0.0787,-0.0695,-0.0679,-0.0666,-0.0663,-0.0867,0,0,0,0,0,-0.0915,-0.0881,-0.0877,-0.0853,-0.0838,-0.0861,-0.086,-0.0869,-0.0867,-0.0864,-0.0853,-0.0839,-0.0804,-0.0773,-0.0747,-0.0671,-0.0682,-0.0615,-0.0602,-0.0591,-0.0585,-0.054,-0.0522,-0.0721,-0.0721,-0.0721,0,0,-0.092,-0.0896,-0.0888,-0.0847,-0.0843,-0.0797,-0.0859,-0.0837,-0.0798,-0.0853,-0.0789,-0.0791,-0.0781,-0.0698,-0.0666,-0.0688,-0.054,-0.0586,-0.0576,-0.0577,-0.0534,-0.0515,-0.0497,-0.0719,-0.0719,-0.072,0,0,-0.089,-0.0865,-0.0821,-0.0788,-0.076,-0.0754,-0.0744,-0.0737,-0.0723,-0.0672,-0.0703,-0.0659,-0.0614,-0.0575,-0.0556,-0.0457,-0.0482,-0.0459,-0.0367,-0.0322,-0.0304,-0.029,-0.027,-0.0255,-0.0439,-0.0439,-0.0439,0,-0.0897,-0.0833,-0.081,-0.0742,-0.0728,-0.0727,-0.0684,-0.0642,-0.0627,-0.0623,-0.0628,-0.0577,-0.0541,-0.046,-0.0415,-0.0416,-0.0429,-0.0418,-0.0302,-0.0287,-0.0274,-0.0258,-0.0243,-0.0431,-0.0432,-0.0433,-0.0434,0,-0.0832,-0.0772,-0.0736,-0.0648,-0.0617,-0.0576,-0.0525,-0.0487,-0.0483,-0.0471,-0.0409,-0.0369,-0.0358,-0.0311,-0.0318,-0.0213,-0.0264,-0.0296,-0.0334,-0.0245,-0.0235,-0.0221,-0.0421,-0.0423,-0.0426,-0.0427,0,0,-0.0874,-0.0727,-0.0713,-0.0677,-0.0571,-0.0556,-0.0453,-0.0404,-0.0392,-0.031,-0.0297,-0.0171,-0.0198,-0.018,-0.0176,-0.0099,0.0018,-0.015,-0.0151,-0.0118,0.0088,0.0106,0.0121,-0.0007,-0.0004,-0.0001,0.0061,0,-0.0843,-0.0723,-0.0656,-0.0569,-0.0514,-0.0469,-0.0405,-0.0352,-0.031,-0.0277,-0.0198,-0.0174,-0.0131,-0.0142,-0.0043,-0.0036,0.0057,0.0002,-0.0016,-0.0016,0.0001,0.014,0.0171,0.0234,0.0074,0.0076,0.0078,0,-0.0797,-0.0728,-0.0632,-0.0564,-0.0545,-0.0495,-0.0453,-0.0392,-0.0309,-0.0291,-0.0218,-0.0197,-0.0076,-0.0064,0.0079,0.0025,0.0083,0.0123,0.0124,0.0098,0.0028,0.0115,0.0263,0.0427,0.0098,0.0096,0.0095,0,-0.0843,-0.0725,-0.0665,-0.0625,-0.0525,-0.0511,-0.0484,-0.0411,-0.0395,-0.0308,-0.0312,-0.0182,-0.0155,-0.0032,0.0076,0.0062,0.0213,0.019,0.0277,0.0275,0.028,0.0275,0.0597,0.0328,0.0328,0.0328,0.0327,0,-0.0818,-0.0772,-0.0692,-0.0645,-0.0647,-0.0569,-0.0567,-0.052,-0.0471,-0.0466,-0.0341,-0.0317,-0.0147,-0.0048,0.007,0.0217,0.0211,0.0328,0.0317,0.033,0.033,0.0447,0.0495,0.033,0.0329,0.0329,0.0329,0,-0.0824,-0.0759,-0.0705,-0.0641,-0.0643,-0.0645,-0.0637,-0.0642,-0.0584,-0.057,-0.0552,-0.0423,-0.0289,-0.0114,0.0063,0.0183,0.0431,0.0383,0.0381,0.0373,0.0611,0.0661,0.0903,0.1004,0.0499,0.05,0.0501,0,-0.0787,-0.0751,-0.0724,-0.0742,-0.0711,-0.0718,-0.074,-0.0699,-0.07,-0.0639,-0.0642,-0.0511,-0.0412,-0.0129,0.0118,0.035,0.0482,0.0512,0.0535,0.0681,0.0729,0.0758,0.0827,0.0591,0.0593,0.0594,0.0595,0,-0.074,-0.0747,-0.073,-0.0776,-0.0806,-0.0838,-0.0856,-0.088,-0.0839,-0.0828,-0.0781,-0.0696,-0.04,-0.0105,0.0217,0.0363,0.0644,0.0546,0.0716,0.0872,0.0906,0.0975,0.0466,0.0607,0.0606,0.0605,0.0605,0.0604,-0.0733,-0.0755,-0.0772,-0.0827,-0.0877,-0.0941,-0.0979,-0.1003,-0.1024,-0.0994,-0.0887,-0.074,-0.0272,0.0196,0.0381,0.0793,0.0753,0.0914,0.0972,0.0994,0.1101,0.0618,0.0732,0.0732,0.0731,0.0731,0.0731,0,-0.0723,-0.0778,-0.0828,-0.0902,-0.0979,-0.0987,-0.105,-0.1083,-0.1127,-0.1042,-0.0967,-0.0494,-0.0039,0.0411,0.0992,0.1215,0.1277,0.132,0.1398,0.1456,0.1054,0.107,0.1241,0.1241,0.1241,0.1241,0.124,0.124,-0.0729,-0.0795,-0.0841,-0.0975,-0.1034,-0.1126,-0.1164,-0.1206,-0.1155,-0.0995,-0.0753,-0.0533,0.0126,0.1056,0.1592,0.1637,0.1841,0.1799,0.1913,0.1656,0.1623,0.1592,0.1626,0.191,0.1911,0.231,0.2314,0.2317]}],[{"header":{"parameterUnit":"m.s-1","parameterCategory":2,"la1":30.2991,"la2":30.254,"lo1":-89.0895,"lo2":-89.0444,"dy":0.0017,"dx":0.0017,"nx":28,"ny":28,"refTime":"2024-04-12T03:00:00:Z","depth":"2","parameterNumber":2,"parameterNumberName":"U-component_of_CURRENTS"},"data":[0,0,0,0,0,0,0,0,0,0,0,0,0,0,0,0,0,0,0,0,0,0,0,0,0,0,0,0,0,0,0,0,0,0,0,0,0,0,0,0,0,0,0,0,0,0,0,0,0,0,0,0,0,0,0,0,0,0,-0.1689,-0.1689,0,-0.1695,-0.1695,-0.1695,-0.1637,-0.1636,-0.1634,-0.1632,-0.1615,-0.1616,-0.1617,0,0,0,0,0,0,0,0,0,0,0,0,0,-0.1568,-0.1571,-0.1689,-0.1689,-0.1689,-0.1695,-0.1695,-0.1695,-0.1637,-0.1636,-0.1634,-0.1632,-0.1615,-0.1616,-0.1617,0,0,0,0,0,0,0,0,0,0,0,0,0,-0.1602,-0.1572,-0.1689,-0.1661,-0.1658,-0.1695,-0.1695,-0.1695,-0.1638,-0.1635,-0.1633,-0.1631,-0.1614,-0.1616,-0.1617,-0.1676,0,0,-0.1622,-0.1623,0,0,0,0,0,0,0,0,-0.1601,-0.1607,-0.1665,-0.1663,-0.166,-0.1662,-0.1646,-0.1687,-0.1639,-0.1646,-0.1632,-0.163,-0.163,-0.1631,-0.1638,-0.1675,-0.1674,-0.1622,-0.1623,-0.1624,-0.1624,0,0,0,0,0,0,0,-0.1598,-0.1606,-0.1691,-0.1665,-0.1662,-0.1627,-0.163,-0.1653,-0.1652,-0.1645,-0.1641,-0.1642,-0.1629,-0.1636,-0.1637,-0.1674,-0.1622,-0.1624,-0.1625,-0.1625,-0.1727,-0.1728,0,0,0,0,0,0,-0.1604,-0.1605,-0.1691,-0.1692,-0.1623,-0.1632,-0.1635,-0.1664,-0.1652,-0.1648,-0.1644,-0.1639,-0.1635,-0.1635,-0.1636,-0.1685,-0.1624,-0.1625,-0.1626,-0.1725,-0.1727,-0.1729,0,0,0,0,0,0,-0.1602,-0.1613,-0.1691,-0.1645,-0.1653,-0.1637,-0.167,-0.1666,-0.1672,-0.1651,-0.1646,-0.1654,-0.1633,-0.1634,-0.1664,-0.1684,-0.1626,-0.1628,-0.1723,-0.1726,-0.1728,-0.1795,0,0,0,0,0,0,-0.1599,-0.1613,-0.1637,-0.1647,-0.1656,-0.172,-0.1672,-0.1668,-0.1676,-0.167,-0.1659,-0.1654,-0.1631,-0.1662,-0.1666,-0.1685,-0.1629,-0.1721,-0.1724,-0.1727,-0.1791,-0.18,-0.1807,0,0,0,0,0,-0.1595,-0.1642,-0.1639,-0.1649,-0.1691,-0.1722,-0.1724,-0.1701,-0.1679,-0.1696,-0.1687,-0.1654,-0.1684,-0.1666,-0.1669,-0.1689,-0.1719,-0.1723,-0.1727,-0.1787,-0.1798,-0.1807,0,0,0,0,0,0,-0.1606,-0.1641,-0.1638,-0.1694,-0.1708,-0.1711,-0.1726,-0.1716,-0.1725,-0.1718,-0.169,-0.1687,-0.1715,-0.1706,-0.1686,-0.1729,-0.1692,-0.1697,-0.1737,-0.1747,-0.1755,-0.1751,-0.163,0,0,0,0,0,-0.1623,-0.1658,-0.1684,-0.1723,-0.1739,-0.1737,-0.1746,-0.1738,-0.1745,-0.1745,-0.1737,-0.1733,-0.1739,-0.1744,-0.1749,-0.179,-0.1774,-0.1802,-0.181,-0.1817,-0.1818,-0.1853,-0.1864,-0.1742,-0.1742,-0.1742,0,0,-0.1629,-0.1657,-0.1672,-0.1726,-0.1735,-0.176,-0.1737,-0.1764,-0.1776,-0.1746,-0.1767,-0.1767,-0.1757,-0.1787,-0.1799,-0.178,-0.1838,-0.1822,-0.1828,-0.1825,-0.1858,-0.187,-0.188,-0.1745,-0.1744,-0.1744,0,0,-0.1651,-0.1698,-0.1725,-0.1747,-0.1775,-0.1787,-0.18,-0.182,-0.1821,-0.1858,-0.1827,-0.1848,-0.1864,-0.1858,-0.1856,-0.1923,-0.1882,-0.1919,-0.196,-0.1995,-0.2005,-0.2014,-0.1979,-0.1984,-0.1924,-0.1924,-0.1924,0,-0.1653,-0.1697,-0.1736,-0.1766,-0.1783,-0.1802,-0.1828,-0.1847,-0.1868,-0.1891,-0.187,-0.1914,-0.1896,-0.1934,-0.1937,-0.194,-0.1931,-0.192,-0.2005,-0.2014,-0.2022,-0.1984,-0.1989,-0.1927,-0.1927,-0.1927,-0.1926,0,-0.1685,-0.1718,-0.1741,-0.1785,-0.1821,-0.1849,-0.1885,-0.1926,-0.1939,-0.1954,-0.2007,-0.2003,-0.202,-0.2022,-0.1991,-0.204,-0.2003,-0.2011,-0.1977,-0.2038,-0.1994,-0.1998,-0.1933,-0.1931,-0.193,-0.1929,0,0,-0.1682,-0.1746,-0.1749,-0.1764,-0.1831,-0.1861,-0.1924,-0.1983,-0.2021,-0.2058,-0.2102,-0.2118,-0.2119,-0.2116,-0.2096,-0.212,-0.2141,-0.2084,-0.2084,-0.2043,-0.2171,-0.2112,-0.211,-0.2172,-0.2174,-0.2175,-0.2106,0,-0.168,-0.1722,-0.1769,-0.1808,-0.1833,-0.1899,-0.1949,-0.2014,-0.2068,-0.2122,-0.2152,-0.2176,-0.2152,-0.2153,-0.2182,-0.2142,-0.216,-0.2155,-0.2123,-0.2121,-0.2058,-0.2117,-0.1954,-0.1878,-0.211,-0.211,-0.2111,0,-0.1696,-0.1712,-0.1744,-0.1814,-0.1835,-0.1865,-0.1973,-0.202,-0.2122,-0.2162,-0.2228,-0.2246,-0.2264,-0.2244,-0.2242,-0.224,-0.221,-0.2192,-0.219,-0.2117,-0.2072,-0.1862,-0.1876,-0.2117,-0.2116,-0.2116,-0.2115,0,-0.1649,-0.1709,-0.1727,-0.1744,-0.1822,-0.1859,-0.191,-0.2025,-0.2074,-0.2174,-0.2213,-0.2277,-0.2265,-0.2287,-0.2241,-0.2242,-0.2237,-0.2233,-0.2161,-0.2153,-0.1997,-0.1974,-0.2264,-0.2264,-0.2265,-0.2265,-0.2265,0,-0.1628,-0.1638,-0.1696,-0.1686,-0.1729,-0.1808,-0.1872,-0.195,-0.2049,-0.2102,-0.2197,-0.2237,-0.228,-0.2289,-0.2264,-0.2207,-0.2255,-0.217,-0.2151,-0.2012,-0.1992,-0.2192,-0.2185,-0.2262,-0.2263,-0.2263,-0.2264,0,-0.1561,-0.1599,-0.1614,-0.1671,-0.1697,-0.172,-0.182,-0.1872,-0.1967,-0.2038,-0.2062,-0.2177,-0.2187,-0.2223,-0.2226,-0.2198,-0.2177,-0.2154,-0.1953,-0.1915,-0.2054,-0.2051,-0.2055,-0.2053,-0.2051,-0.2049,-0.2048,0,-0.1526,-0.152,-0.1573,-0.1584,-0.1596,-0.1647,-0.1691,-0.1807,-0.186,-0.1995,-0.2011,-0.2076,-0.2109,-0.2095,-0.2076,-0.2039,-0.2114,-0.1868,-0.1862,-0.2061,-0.2042,-0.2042,-0.2042,-0.1653,-0.1649,-0.1645,-0.1642,0,-0.1432,-0.1454,-0.146,-0.1486,-0.1515,-0.1563,-0.1622,-0.1653,-0.1786,-0.1846,-0.1919,-0.1961,-0.1976,-0.189,-0.1864,-0.1826,-0.1865,-0.1792,-0.2068,-0.175,-0.1683,-0.1664,-0.1677,-0.161,-0.1613,-0.1615,-0.1617,-0.1618,-0.1359,-0.1354,-0.1372,-0.1397,-0.1431,-0.1455,-0.1465,-0.154,-0.1598,-0.167,-0.1765,-0.1774,-0.178,-0.1673,-0.1593,-0.1539,-0.1676,-0.1598,-0.1609,-0.1624,-0.1608,-0.1545,-0.1437,-0.1439,-0.1441,-0.1443,-0.1444,0,-0.1272,-0.128,-0.129,-0.1312,-0.1312,-0.1363,-0.141,-0.1407,-0.1434,-0.1504,-0.1552,-0.1432,-0.1375,-0.1385,-0.1253,-0.123,-0.1214,-0.1172,-0.1146,-0.1179,-0.1208,-0.1172,-0.0885,-0.0883,-0.0881,-0.088,0,0,-0.1224,-0.1204,-0.1217,-0.1186,-0.1202,-0.1174,-0.1178,-0.1185,-0.1212,-0.1207,-0.1215,-0.1332,-0.1361,-0.1129,-0.1066,-0.0954,-0.1055,-0.0904,-0.1355,-0.1358,-0.1385,-0.1457,-0.144,0,0,0,0,0]},{"header":{"parameterUnit":"m.s-1","parameterCategory":2,"la1":30.2991,"la2":30.254,"lo1":-89.0895,"lo2":-89.0444,"dy":0.0017,"dx":0.0017,"nx":28,"ny":28,"refTime":"2024-04-12T03:00:00:Z","depth":"2","parameterNumber":3,"parameterNumberName":"V-component_of_CURRENTS"},"data":[0,0,0,0,0,0,0,0,0,0,0,0,0,0,0,0,0,0,0,0,0,0,0,0,0,0,0,0,0,0,0,0,0,0,0,0,0,0,0,0,0,0,0,0,0,0,0,0,0,0,0,0,0,0,0,0,0,0,0.0071,0.0073,0,0.0265,0.0268,0.027,0.0374,0.0375,0.0375,0.0375,0.0433,0.0434,0.0436,0,0,0,0,0,0,0,0,0,0,0,0,0,-0.006,-0.0059,0.0071,0.0073,0.0076,0.0265,0.0268,0.027,0.0374,0.0375,0.0375,0.0375,0.0433,0.0434,0.0436,0,0,0,0,0,0,0,0,0,0,0,0,0,0.0051,-0.0059,0.007,0.0151,0.0161,0.0265,0.0268,0.0271,0.0374,0.0375,0.0375,0.0376,0.0432,0.0434,0.0436,0.0438,0,0,0.0442,0.0442,0,0,0,0,0,0,0,0,0.0044,0.0055,0.0137,0.0146,0.0157,0.0297,0.0243,0.032,0.0374,0.0292,0.0375,0.0376,0.0375,0.0382,0.0418,0.044,0.0443,0.0442,0.0443,0.0444,0.0444,0,0,0,0,0,0,0,0.0036,0.0048,0.0147,0.014,0.0152,0.023,0.0245,0.026,0.0325,0.0299,0.0308,0.0331,0.038,0.0416,0.042,0.0444,0.0442,0.0443,0.0445,0.0445,0.046,0.046,0,0,0,0,0,0,0.0006,0.004,0.0141,0.0153,0.0102,0.0231,0.0248,0.0251,0.0328,0.0342,0.033,0.0335,0.0413,0.0417,0.0422,0.04,0.0444,0.0446,0.0447,0.0461,0.046,0.0459,0,0,0,0,0,0,0.0002,0.0012,0.0133,0.0103,0.0124,0.0232,0.0235,0.0254,0.027,0.0354,0.0365,0.0324,0.0413,0.0419,0.0434,0.0404,0.0446,0.0448,0.0462,0.0461,0.046,0.0374,0,0,0,0,0,0,-0.0003,0.0009,-0.0015,0.01,0.0125,0.0169,0.0236,0.0258,0.0286,0.0293,0.0352,0.036,0.0414,0.0431,0.0436,0.0407,0.0449,0.0463,0.0461,0.046,0.0378,0.037,0.0364,0,0,0,0,0,-0.0009,-0.0048,-0.0018,-0.0006,0.0092,0.0168,0.0187,0.0267,0.0284,0.0283,0.0336,0.0357,0.0425,0.0432,0.0438,0.0409,0.0463,0.0462,0.046,0.0381,0.0372,0.0364,0,0,0,0,0,0,-0.0117,-0.0037,-0.0003,-0.0016,0.006,0.0185,0.018,0.024,0.0284,0.0274,0.0351,0.0363,0.0368,0.0396,0.0401,0.0411,0.0445,0.0445,0.0383,0.0375,0.0368,0.0376,0.0451,0,0,0,0,0,-0.0153,-0.0164,-0.0059,-0.007,-0.005,0.0057,0.009,0.0148,0.0215,0.0235,0.0286,0.0329,0.0369,0.0376,0.0415,0.0409,0.0448,0.0394,0.0387,0.0381,0.0392,0.0438,0.0437,0.0454,0.0454,0.0454,0,0,-0.0191,-0.0154,-0.0156,-0.0094,-0.0041,0.0002,0.0075,0.0106,0.0147,0.0227,0.0258,0.0301,0.0364,0.038,0.0381,0.0395,0.0389,0.0379,0.0373,0.0388,0.0437,0.0435,0.0434,0.0453,0.0453,0.0453,0,0,-0.0258,-0.0254,-0.0272,-0.0217,-0.0147,-0.0078,-0.0081,0.0023,0.0061,0.0106,0.0177,0.0207,0.0258,0.0315,0.0346,0.0315,0.0354,0.0308,0.0273,0.0316,0.0316,0.0316,0.033,0.0332,0.0299,0.0299,0.0299,0,-0.0314,-0.0299,-0.0263,-0.0247,-0.0205,-0.0124,-0.0102,-0.005,0.0053,0.0081,0.0094,0.0203,0.0237,0.0289,0.0288,0.0298,0.0324,0.0298,0.0307,0.0309,0.031,0.0326,0.0329,0.0294,0.0295,0.0295,0.0296,0,-0.0344,-0.034,-0.0354,-0.0303,-0.027,-0.0242,-0.0158,-0.0132,-0.0089,-0.0012,0.0035,0.0106,0.0177,0.018,0.0227,0.0253,0.0266,0.0296,0.0328,0.0303,0.0321,0.0326,0.0288,0.029,0.0291,0.0292,0,0,-0.0432,-0.0384,-0.0384,-0.0367,-0.029,-0.0264,-0.0233,-0.0157,-0.0138,-0.0063,-0.002,0.0052,0.0093,0.0133,0.0185,0.0219,0.0234,0.0253,0.0258,0.0265,0.031,0.0337,0.0345,0.0266,0.0267,0.0268,0.0307,0,-0.0453,-0.0445,-0.0405,-0.0388,-0.0373,-0.0302,-0.0279,-0.0216,-0.0158,-0.0109,-0.0032,0.0019,0.0074,0.0093,0.0141,0.0216,0.0249,0.022,0.0337,0.034,0.0366,0.0353,0.0331,0.0366,0.0312,0.0313,0.0314,0,-0.0481,-0.046,-0.0448,-0.0425,-0.0418,-0.0396,-0.035,-0.0311,-0.0228,-0.0193,-0.0118,-0.0048,0.0023,0.0064,0.0187,0.0165,0.0234,0.0289,0.0292,0.0359,0.0378,0.039,0.0378,0.0323,0.0322,0.0322,0.0321,0,-0.0531,-0.0507,-0.0501,-0.0476,-0.0424,-0.0419,-0.0399,-0.0334,-0.0317,-0.0235,-0.0222,-0.0109,-0.007,0.0044,0.017,0.0175,0.0298,0.0318,0.0409,0.041,0.0439,0.0441,0.0411,0.0411,0.041,0.041,0.041,0,-0.0548,-0.0545,-0.0528,-0.0498,-0.052,-0.0476,-0.0482,-0.0444,-0.0397,-0.039,-0.027,-0.0239,-0.0072,0.0028,0.0148,0.0292,0.0284,0.0409,0.0431,0.0404,0.0403,0.0414,0.0414,0.0412,0.0411,0.0411,0.0411,0,-0.0578,-0.0558,-0.0558,-0.0528,-0.0534,-0.0549,-0.0549,-0.0555,-0.0503,-0.0487,-0.0469,-0.0343,-0.0212,-0.004,0.0134,0.0249,0.039,0.0447,0.0391,0.0408,0.0472,0.0467,0.054,0.0542,0.0543,0.0544,0.0545,0,-0.058,-0.058,-0.0593,-0.0616,-0.0597,-0.0617,-0.064,-0.0608,-0.0608,-0.0549,-0.0549,-0.042,-0.0317,-0.0049,0.0177,0.0393,0.0412,0.0498,0.052,0.0475,0.049,0.0483,0.0476,0.0503,0.0504,0.0504,0.0504,0,-0.0571,-0.0593,-0.0592,-0.0654,-0.0689,-0.0727,-0.0747,-0.0768,-0.0732,-0.0715,-0.066,-0.0572,-0.03,-0.005,0.0244,0.0371,0.0464,0.0513,0.0492,0.0479,0.0446,0.0459,0.0452,0.0508,0.0507,0.0507,0.0507,0.0507,-0.0584,-0.0614,-0.0649,-0.071,-0.0761,-0.0819,-0.0853,-0.0872,-0.0885,-0.0843,-0.074,-0.0592,-0.0327,0.0087,0.0308,0.0516,0.0511,0.0575,0.0572,0.0568,0.0563,0.0535,0.061,0.061,0.061,0.061,0.061,0,-0.06,-0.0646,-0.0707,-0.078,-0.085,-0.0862,-0.0916,-0.0939,-0.0963,-0.0876,-0.079,-0.0512,-0.0207,0.0066,0.0402,0.0603,0.059,0.0632,0.0585,0.058,0.0576,0.057,0.0619,0.062,0.0621,0.0621,0,0,-0.0614,-0.0678,-0.0719,-0.084,-0.0896,-0.0977,-0.1009,-0.1031,-0.0976,-0.0909,-0.0779,-0.0557,-0.021,0.0033,0.0292,0.0469,0.047,0.0481,0.0453,0.0363,0.0357,0.0524,0.0506,0,0,0,0,0]}],[{"header":{"parameterUnit":"m.s-1","parameterCategory":2,"la1":30.2991,"la2":30.254,"lo1":-89.0895,"lo2":-89.0444,"dy":0.0017,"dx":0.0017,"nx":28,"ny":28,"refTime":"2024-04-12T03:00:00:Z","depth":"4","parameterNumber":2,"parameterNumberName":"U-component_of_CURRENTS"},"data":[0,0,0,0,0,0,0,0,0,0,0,0,0,0,0,0,0,0,0,0,0,0,0,0,0,0,0,0,0,0,0,0,0,0,0,0,0,0,0,0,0,0,0,0,0,0,0,0,0,0,0,0,0,0,0,0,0,0,-0.0889,-0.0889,0,-0.0893,-0.0893,-0.0893,-0.0888,-0.0888,-0.0888,-0.0888,-0.0909,-0.0909,-0.0909,0,0,0,0,0,0,0,0,0,0,0,0,0,-0.0826,-0.0827,-0.0889,-0.0889,-0.0889,-0.0893,-0.0893,-0.0893,-0.0887,-0.0888,-0.0888,-0.0888,-0.0908,-0.0909,-0.0909,0,0,0,0,0,0,0,0,0,0,0,0,0,-0.0841,-0.0827,-0.0889,-0.089,-0.089,-0.0893,-0.0893,-0.0893,-0.0887,-0.0888,-0.0888,-0.0888,-0.0908,-0.0909,-0.091,-0.0911,0,0,-0.0912,-0.0912,0,0,0,0,0,0,0,0,-0.084,-0.0843,-0.0889,-0.089,-0.089,-0.0893,-0.0879,-0.0901,-0.0887,-0.0885,-0.0888,-0.0888,-0.0907,-0.0908,-0.0903,-0.0912,-0.0912,-0.0912,-0.0912,-0.0912,-0.0913,0,0,0,0,0,0,0,-0.0839,-0.0842,-0.0887,-0.089,-0.089,-0.0873,-0.0876,-0.0882,-0.0893,-0.0885,-0.0886,-0.0891,-0.0907,-0.0902,-0.0904,-0.0913,-0.0912,-0.0912,-0.0913,-0.0913,-0.0971,-0.0972,0,0,0,0,0,0,-0.0848,-0.0842,-0.0887,-0.0888,-0.0869,-0.0875,-0.0877,-0.0889,-0.0892,-0.0894,-0.0891,-0.0891,-0.0901,-0.0903,-0.0905,-0.0974,-0.0912,-0.0913,-0.0913,-0.097,-0.0971,-0.0972,0,0,0,0,0,0,-0.0847,-0.0852,-0.0887,-0.0867,-0.087,-0.0876,-0.0889,-0.0889,-0.0904,-0.0897,-0.0898,-0.0909,-0.0901,-0.0904,-0.0925,-0.0972,-0.0913,-0.0914,-0.0969,-0.097,-0.0972,-0.1069,0,0,0,0,0,0,-0.0845,-0.0852,-0.0875,-0.0868,-0.0872,-0.0909,-0.0889,-0.0889,-0.0908,-0.0908,-0.0913,-0.0913,-0.0902,-0.0924,-0.0926,-0.0972,-0.0914,-0.0967,-0.0969,-0.0971,-0.1064,-0.1074,-0.1082,0,0,0,0,0,-0.0843,-0.0875,-0.0876,-0.0882,-0.09,-0.0911,-0.0912,-0.0913,-0.0909,-0.0925,-0.0922,-0.0914,-0.0939,-0.0926,-0.0927,-0.0975,-0.0966,-0.0969,-0.0971,-0.106,-0.1072,-0.1082,0,0,0,0,0,0,-0.0858,-0.0878,-0.0878,-0.0915,-0.0921,-0.0912,-0.0934,-0.0927,-0.0936,-0.0943,-0.0926,-0.0928,-0.0959,-0.095,-0.0936,-0.0995,-0.0953,-0.0956,-0.102,-0.1031,-0.1039,-0.1065,-0.0915,0,0,0,0,0,-0.0873,-0.0905,-0.0909,-0.094,-0.0948,-0.0943,-0.0952,-0.0952,-0.0954,-0.0958,-0.0958,-0.0961,-0.0967,-0.0986,-0.0982,-0.1022,-0.1023,-0.1052,-0.1061,-0.1069,-0.109,-0.1098,-0.1111,-0.0981,-0.0981,-0.0981,0,0,-0.0889,-0.0903,-0.0923,-0.0946,-0.0952,-0.0969,-0.0949,-0.0974,-0.0993,-0.096,-0.0994,-0.0986,-0.0979,-0.1015,-0.1032,-0.1021,-0.1114,-0.1072,-0.1079,-0.1096,-0.1103,-0.1115,-0.1127,-0.0983,-0.0982,-0.0982,0,0,-0.092,-0.0949,-0.0978,-0.0992,-0.1012,-0.1009,-0.1022,-0.1026,-0.104,-0.1068,-0.1044,-0.108,-0.1082,-0.1101,-0.1107,-0.1167,-0.1146,-0.1152,-0.1239,-0.1247,-0.1259,-0.1268,-0.1321,-0.1335,-0.1173,-0.1173,-0.1173,0,-0.0934,-0.0972,-0.0987,-0.1013,-0.1033,-0.1031,-0.1057,-0.107,-0.108,-0.109,-0.1096,-0.1116,-0.1136,-0.1175,-0.1211,-0.1195,-0.119,-0.1202,-0.1261,-0.127,-0.1278,-0.133,-0.1343,-0.1178,-0.1178,-0.1177,-0.1177,0,-0.0975,-0.1012,-0.1034,-0.1066,-0.1088,-0.1117,-0.1133,-0.1152,-0.1169,-0.1174,-0.1217,-0.1242,-0.1256,-0.1277,-0.1277,-0.134,-0.1316,-0.1258,-0.1238,-0.1298,-0.1348,-0.1361,-0.1185,-0.1184,-0.1182,-0.1181,0,0,-0.0977,-0.1049,-0.1056,-0.1087,-0.1123,-0.1144,-0.1181,-0.1206,-0.1232,-0.1264,-0.1304,-0.1365,-0.137,-0.1379,-0.1381,-0.1427,-0.1525,-0.1385,-0.1383,-0.1448,-0.1564,-0.1421,-0.1421,-0.1452,-0.1454,-0.1456,-0.1589,0,-0.0999,-0.1066,-0.1091,-0.1152,-0.1188,-0.1204,-0.1237,-0.1263,-0.1291,-0.1329,-0.1369,-0.1409,-0.1406,-0.1437,-0.1479,-0.1506,-0.1555,-0.1497,-0.1489,-0.1491,-0.1362,-0.1429,-0.1462,-0.1598,-0.1601,-0.1603,-0.1605,0,-0.1015,-0.1066,-0.1136,-0.1205,-0.1222,-0.1254,-0.1307,-0.1337,-0.1375,-0.1401,-0.1437,-0.1447,-0.1546,-0.1521,-0.1617,-0.1566,-0.1584,-0.1606,-0.1609,-0.1448,-0.1368,-0.1516,-0.1627,-0.1625,-0.1624,-0.1622,-0.1621,0,-0.101,-0.1089,-0.1153,-0.118,-0.1255,-0.1286,-0.1317,-0.1356,-0.1393,-0.1448,-0.1491,-0.1542,-0.1614,-0.1629,-0.1684,-0.1651,-0.1768,-0.1717,-0.1607,-0.1599,-0.1647,-0.1634,-0.1767,-0.1767,-0.1767,-0.1766,-0.1766,0,-0.1012,-0.1067,-0.1162,-0.1202,-0.1263,-0.1311,-0.137,-0.1395,-0.1456,-0.1494,-0.1534,-0.1581,-0.1639,-0.1693,-0.171,-0.1706,-0.1783,-0.1648,-0.1618,-0.1689,-0.168,-0.1658,-0.1644,-0.1771,-0.177,-0.1769,-0.1768,0,-0.0987,-0.1056,-0.1133,-0.1233,-0.1265,-0.1306,-0.1393,-0.1423,-0.1496,-0.1553,-0.1579,-0.1655,-0.171,-0.1749,-0.181,-0.1748,-0.1753,-0.1718,-0.1845,-0.1815,-0.1587,-0.1577,-0.1638,-0.1634,-0.163,-0.1627,-0.1625,0,-0.0987,-0.1027,-0.1145,-0.1176,-0.1224,-0.1297,-0.1331,-0.1419,-0.145,-0.1574,-0.159,-0.1683,-0.1707,-0.171,-0.1741,-0.1747,-0.17,-0.171,-0.1615,-0.1607,-0.1572,-0.1567,-0.1561,-0.1619,-0.1618,-0.1617,-0.1617,0,-0.0969,-0.1012,-0.1062,-0.1133,-0.1186,-0.1241,-0.1305,-0.1332,-0.1422,-0.1528,-0.1556,-0.1568,-0.1621,-0.1634,-0.1638,-0.163,-0.171,-0.1673,-0.168,-0.159,-0.1585,-0.1553,-0.1551,-0.1604,-0.1606,-0.1607,-0.1608,0,-0.0938,-0.0953,-0.1011,-0.1058,-0.112,-0.1145,-0.12,-0.1242,-0.1297,-0.1432,-0.1442,-0.1523,-0.1611,-0.1574,-0.1581,-0.1556,-0.1523,-0.1466,-0.1483,-0.1497,-0.1375,-0.1343,-0.1284,0,0,0,0,0,-0.0895,-0.0892,-0.093,-0.0973,-0.1028,-0.1066,-0.1154,-0.121,-0.1325,-0.1307,-0.1368,-0.1394,-0.1398,-0.1445,-0.1386,-0.1503,-0.1523,-0.1426,-0.1464,-0.1538,-0.1552,-0.1414,0,0,0,0,0,0,-0.0858,-0.0881,-0.0895,-0.0885,-0.0898,-0.0951,-0.1,-0.1081,-0.108,-0.1201,-0.1214,-0.1303,-0.133,-0.1413,-0.1358,-0.1368,-0.136,-0.1482,-0.1477,-0.153,-0.1543,-0.1554,-0.1417,0,0,0,0,0]},{"header":{"parameterUnit":"m.s-1","parameterCategory":2,"la1":30.2991,"la2":30.254,"lo1":-89.0895,"lo2":-89.0444,"dy":0.0017,"dx":0.0017,"nx":28,"ny":28,"refTime":"2024-04-12T03:00:00:Z","depth":"4","parameterNumber":3,"parameterNumberName":"V-component_of_CURRENTS"},"data":[0,0,0,0,0,0,0,0,0,0,0,0,0,0,0,0,0,0,0,0,0,0,0,0,0,0,0,0,0,0,0,0,0,0,0,0,0,0,0,0,0,0,0,0,0,0,0,0,0,0,0,0,0,0,0,0,0,0,0.0346,0.0347,0,0.0409,0.0409,0.041,0.045,0.045,0.0451,0.0451,0.0476,0.0476,0.0477,0,0,0,0,0,0,0,0,0,0,0,0,0,0.0259,0.0261,0.0346,0.0347,0.0348,0.0408,0.0409,0.041,0.045,0.0451,0.0451,0.0452,0.0476,0.0476,0.0477,0,0,0,0,0,0,0,0,0,0,0,0,0,0.0305,0.0261,0.0345,0.0377,0.038,0.0408,0.0409,0.041,0.045,0.0451,0.0451,0.0452,0.0476,0.0476,0.0477,0.0465,0,0,0.0478,0.0478,0,0,0,0,0,0,0,0,0.0302,0.0307,0.0371,0.0375,0.0379,0.0424,0.0388,0.0427,0.045,0.0421,0.0451,0.0452,0.0456,0.0458,0.0466,0.0466,0.0467,0.0478,0.0478,0.0478,0.0478,0,0,0,0,0,0,0,0.0299,0.0305,0.0368,0.0372,0.0377,0.0388,0.0395,0.0396,0.0431,0.0423,0.0427,0.0438,0.0458,0.0465,0.0467,0.0467,0.0478,0.0478,0.0478,0.0478,0.0481,0.0481,0,0,0,0,0,0,0.0295,0.0302,0.0366,0.037,0.0344,0.0389,0.0396,0.0407,0.0432,0.0438,0.0437,0.0439,0.0464,0.0466,0.0468,0.0435,0.0478,0.0478,0.0479,0.0481,0.0481,0.0481,0,0,0,0,0,0,0.0293,0.03,0.0364,0.0339,0.0349,0.039,0.0401,0.0408,0.0422,0.0444,0.0448,0.0445,0.0465,0.0467,0.0472,0.0437,0.0479,0.0479,0.0482,0.0481,0.0481,0.0383,0,0,0,0,0,0,0.029,0.0299,0.0298,0.0339,0.035,0.0367,0.0401,0.0409,0.0428,0.0432,0.0452,0.0455,0.0466,0.0471,0.0472,0.0438,0.0479,0.0482,0.0481,0.0481,0.0386,0.0379,0.0373,0,0,0,0,0,0.0287,0.0274,0.0298,0.0305,0.035,0.0366,0.0372,0.0402,0.0428,0.042,0.0445,0.0454,0.047,0.0471,0.0472,0.0438,0.0482,0.0482,0.0481,0.0389,0.0381,0.0373,0,0,0,0,0,0,0.0231,0.0279,0.0305,0.0307,0.0333,0.0374,0.0368,0.0401,0.0417,0.0419,0.045,0.0453,0.0445,0.0464,0.0465,0.0444,0.0478,0.0478,0.0408,0.04,0.0394,0.0368,0.0479,0,0,0,0,0,0.0222,0.0228,0.0275,0.0276,0.0285,0.033,0.0342,0.0365,0.039,0.0399,0.0418,0.0438,0.0444,0.0441,0.0453,0.0435,0.0469,0.0419,0.0412,0.0406,0.0389,0.0413,0.0406,0.048,0.048,0.048,0,0,0.0203,0.0229,0.0233,0.0265,0.0286,0.027,0.0337,0.0345,0.0327,0.0396,0.0375,0.0416,0.0439,0.0421,0.0419,0.043,0.041,0.0406,0.04,0.0386,0.0411,0.0404,0.0397,0.048,0.048,0.048,0,0,0.0156,0.0187,0.0173,0.0181,0.021,0.0229,0.0232,0.0272,0.0283,0.0283,0.0326,0.0353,0.036,0.037,0.0375,0.0343,0.0381,0.0349,0.028,0.0303,0.0296,0.029,0.0346,0.0346,0.0337,0.0337,0.0337,0,0.0131,0.0121,0.0169,0.0145,0.0141,0.0204,0.0174,0.0181,0.0218,0.0225,0.0261,0.0302,0.033,0.0308,0.03,0.0323,0.0355,0.03,0.0291,0.0286,0.0282,0.0341,0.0342,0.0332,0.0333,0.0333,0.0334,0,0.0072,0.0055,0.004,0.0031,0.0029,0.0014,0.0034,0.0038,0.0074,0.0098,0.0113,0.0169,0.0198,0.0211,0.024,0.0221,0.0263,0.0284,0.0302,0.0268,0.0333,0.0336,0.0326,0.0327,0.0329,0.033,0,0,0.0048,0.0008,0.0003,-0.0023,-0.0031,-0.0034,-0.0075,-0.0077,-0.0081,-0.0045,-0.0042,-0.0016,0.0049,0.0062,0.0115,0.0133,0.0151,0.0185,0.0189,0.0226,0.0222,0.0216,0.022,0.0163,0.0163,0.0162,0.0287,0,-0.0008,-0.0085,-0.0083,-0.0157,-0.0196,-0.0169,-0.0206,-0.0201,-0.0169,-0.0153,-0.0097,-0.0069,-0.0024,0.0016,0.003,0.0136,0.0151,0.0117,0.0263,0.0267,0.0252,0.0219,0.0161,0.0289,0.029,0.0291,0.0291,0,-0.006,-0.0107,-0.0195,-0.0245,-0.0255,-0.0289,-0.0304,-0.0321,-0.0298,-0.0266,-0.0236,-0.0171,-0.013,-0.0075,0.0033,0.001,0.0092,0.0168,0.0175,0.0198,0.0265,0.0328,0.0298,0.0297,0.0297,0.0296,0.0296,0,-0.0104,-0.0176,-0.0249,-0.0274,-0.0328,-0.035,-0.0359,-0.0353,-0.0356,-0.0323,-0.0297,-0.0247,-0.0185,-0.0105,0.0044,0.0044,0.0178,0.0207,0.0272,0.0275,0.0289,0.0293,0.0254,0.0254,0.0253,0.0253,0.0253,0,-0.0171,-0.0228,-0.0274,-0.0326,-0.0385,-0.0392,-0.0429,-0.0425,-0.0409,-0.0416,-0.0349,-0.0323,-0.0192,-0.0096,0.0021,0.0157,0.016,0.0248,0.029,0.0251,0.025,0.0293,0.0296,0.0258,0.0257,0.0256,0.0255,0,-0.0226,-0.0264,-0.0345,-0.0404,-0.0419,-0.0454,-0.0478,-0.0495,-0.0467,-0.0466,-0.0454,-0.0367,-0.0239,-0.0102,0.0068,0.0141,0.0273,0.0314,0.028,0.0321,0.0367,0.0364,0.0404,0.0405,0.0405,0.0405,0.0405,0,-0.0275,-0.0323,-0.0394,-0.0434,-0.0467,-0.0509,-0.0539,-0.0531,-0.0539,-0.0494,-0.0492,-0.0377,-0.0308,-0.0064,0.0072,0.0282,0.0299,0.0372,0.0336,0.0337,0.0375,0.0371,0.0368,0.0406,0.0406,0.0406,0.0406,0,-0.0352,-0.0361,-0.0416,-0.0495,-0.0541,-0.0589,-0.062,-0.0629,-0.0612,-0.059,-0.0514,-0.0393,-0.0252,-0.0072,0.0088,0.0232,0.0327,0.0376,0.0376,0.0344,0.034,0.0377,0.0373,0.0408,0.0407,0.0407,0.0407,0,-0.0381,-0.0417,-0.047,-0.0534,-0.0597,-0.0644,-0.066,-0.0654,-0.0649,-0.0589,-0.0566,-0.0407,-0.0313,-0.0097,0.0049,0.019,0.0223,0.0261,0.0268,0.0269,0.0179,0.0152,0.0182,0,0,0,0,0,-0.0403,-0.0438,-0.0507,-0.0572,-0.0634,-0.0669,-0.0704,-0.0704,-0.0687,-0.0641,-0.0598,-0.0466,-0.0242,-0.0138,0.0003,0.0048,0.0239,0.0215,0.0284,0.0415,0.0413,0.0327,0,0,0,0,0,0,-0.0416,-0.0471,-0.0506,-0.0587,-0.0637,-0.0701,-0.0726,-0.0717,-0.0675,-0.0638,-0.0511,-0.0442,-0.0216,-0.0321,0.0003,0.0045,0.0105,0.0326,0.0329,0.0415,0.0414,0.0413,0.0324,0,0,0,0,0]}]]